Pierre, SD

7:49 PM CST on November 20, 2019 (GMT -0600)
Pierre Regional

Weather History for KPIR - June, 2019

Change the Weather History Date:

Tuesday, June 4, 2019

  Actual Average Record
Temperature  
Mean Temperature 75 °F 64 °F  
Max Temperature 87 °F 76 °F 94 °F (1939)
Min Temperature 62 °F 52 °F 38 °F (1954)
Degree Days  
Heating Degree Days 0    
Month to date heating degree days 12  
Since 1 June heating degree days 12  
Since 1 July heating degree days 8138  
Cooling Degree Days 10    
Month to date cooling degree days 15  
Year to date cooling degree days 26  
Since 1 June cooling degree days 15  
Growing Degree Days 24 (Base 50)    
Moisture  
Dew Point 63 °F    
Average Humidity 68    
Maximum Humidity 93    
Minimum Humidity 43    
Precipitation  
Precipitation 0.00 in 0.14 in 1.74 in (1991)
Month to date precipitation T 0.53  
Year to date precipitation 13.85 7.73  
Snow  
Snow 0.00 in 0.00 in 0.00 in ()
Month to date snowfall 0.0 0.0  
Since 1 July snowfall 66.3 31.9  
Snow Depth 0.00 in    
Sea Level Pressure  
Sea Level Pressure 29.68 in    
Wind  
Wind Speed 9 mph (West)    
Max Wind Speed 24 mph    
Max Gust Speed 33 mph    
Visibility 10 miles    
Events      
T = Trace of Precipitation, MM = Missing Value Source: NWS Daily Summary

Daily Weather History Graph

Daily Weather History Graph

Search for Another Location

Airport or City:

Astronomy

Jun. 04, 2019 Rise Set
Actual Time 5:58 AM CDT 9:20 PM CDT
Civil Twilight 5:22 AM CDT 9:56 PM CDT
Nautical Twilight 4:35 AM CDT 10:43 PM CDT
Astronomical Twilight 3:36 AM CDT 11:43 PM CDT
Moon 7:09 AM CDT (6/4) 10:50 PM CDT (6/4)
Length of Visible Light 16h 34m
Length of Day
15h 22m
New Moon, 2% of the Moon is Illuminated
Jun 4
New Moon
Jun 10
First Quarter
Jun 17
Full
Jun 25
Last Quarter
Jul 2
New

Hourly Weather History & Observations

Time (CDT) Temp. Heat Index Dew Point Humidity Pressure Visibility Wind Dir Wind Speed Gust Speed Precip Events Conditions
12:53 AM 69.1 °F - 64.9 °F 87% 29.67 in 10.0 mi SE 9.2 mph - N/A   Clear
1:53 AM 68.0 °F - 64.0 °F 87% 29.65 in 10.0 mi SE 5.8 mph - N/A   Clear
2:53 AM 68.0 °F - 63.0 °F 84% 29.65 in 10.0 mi South 5.8 mph - N/A   Clear
3:53 AM 64.0 °F - 62.1 °F 93% 29.64 in 10.0 mi South 5.8 mph - N/A   Clear
4:53 AM 62.1 °F - 60.1 °F 93% 29.63 in 10.0 mi SE 3.5 mph - N/A   Clear
5:53 AM 62.1 °F - 60.1 °F 93% 29.62 in 10.0 mi SSE 6.9 mph - N/A   Clear
6:53 AM 63.0 °F - 61.0 °F 93% 29.65 in 10.0 mi SSW 6.9 mph - N/A   Clear
7:53 AM 64.9 °F - 60.1 °F 84% 29.66 in 10.0 mi WSW 8.1 mph - N/A   Clear
8:53 AM 69.1 °F - 62.1 °F 78% 29.67 in 10.0 mi WNW 4.6 mph - N/A   Clear
9:53 AM 71.1 °F - 63.0 °F 75% 29.68 in 10.0 mi West 5.8 mph - N/A   Clear
10:53 AM 75.0 °F - 66.0 °F 73% 29.68 in 10.0 mi WNW 8.1 mph - N/A   Clear
11:53 AM 78.1 °F - 68.0 °F 71% 29.67 in 10.0 mi West 5.8 mph - N/A   Clear
12:53 PM 80.1 °F 82.9 °F 69.1 °F 69% 29.68 in 10.0 mi WNW 10.4 mph - N/A   Clear
1:53 PM 82.9 °F 85.4 °F 66.9 °F 58% 29.68 in 10.0 mi WNW 12.7 mph - N/A   Clear
2:53 PM 84.9 °F 86.6 °F 64.9 °F 51% 29.66 in 10.0 mi WNW 16.1 mph - N/A   Clear
3:53 PM 86.0 °F 88.2 °F 66.0 °F 51% 29.66 in 10.0 mi WNW 13.8 mph - N/A   Clear
4:53 PM 87.1 °F 87.8 °F 63.0 °F 44% 29.67 in 10.0 mi WNW 15.0 mph - N/A   Partly Cloudy
5:53 PM 79.0 °F - 63.0 °F 58% 29.67 in 10.0 mi WNW 15.0 mph 21.9 mph N/A   Clear
6:53 PM 77.0 °F - 61.0 °F 58% 29.69 in 10.0 mi NNW 12.7 mph - N/A   Clear
7:53 PM 75.0 °F - 59.0 °F 57% 29.69 in 10.0 mi WNW 9.2 mph - N/A   Clear
8:53 PM 72.0 °F - 57.0 °F 59% 29.72 in 10.0 mi NW 9.2 mph - N/A   Clear
9:53 PM 69.1 °F - 59.0 °F 70% 29.73 in 10.0 mi NW 10.4 mph - N/A   Clear
10:53 PM 69.1 °F - 61.0 °F 75% 29.75 in 10.0 mi NNW 9.2 mph - N/A   Clear
11:53 PM 70.0 °F - 60.1 °F 71% 29.76 in 10.0 mi NNW 12.7 mph - N/A   Clear